[[{"header":{"parameterUnit":"m.s-1","parameterCategory":2,"la1":30.2991,"la2":30.254,"lo1":-89.0895,"lo2":-89.0444,"dy":0.0017,"dx":0.0017,"nx":28,"ny":28,"refTime":"2025-03-15T03:00:00:Z","depth":"0","parameterNumber":2,"parameterNumberName":"U-component_of_CURRENTS"},"data":[0,0,0,0,0,0,0,0,0,0,0,0,0,0,0,0,0,0,0,0,0,0,0,0,0,0,0,0,0,0,0,0,0,0,0,0,0,0,0,0,0,0,0,0,0,0,0,0,0,0,0,0,0,0,0,0,0,0,0.2588,0.2589,0,0.2643,0.2644,0.2644,0.2643,0.2643,0.2642,0.2642,0.2682,0.2684,0.2686,0,0,0,0,0,0,0,0,0,0,0,0,0,0.2515,0.2516,0.2588,0.2589,0.259,0.2643,0.2644,0.2644,0.2644,0.2643,0.2642,0.2642,0.2682,0.2684,0.2686,0,0,0,0,0,0,0,0,0,0,0,0,0,0.2554,0.2516,0.2588,0.2597,0.2599,0.2643,0.2644,0.2644,0.2644,0.2643,0.2642,0.2641,0.2681,0.2684,0.2686,0.2717,0,0,0.2693,0.2694,0,0,0,0,0,0,0,0,0.2552,0.2556,0.2595,0.2597,0.2599,0.2637,0.2633,0.2669,0.2644,0.2625,0.2642,0.2641,0.2668,0.2671,0.2681,0.2719,0.2721,0.2693,0.2695,0.2696,0.2697,0,0,0,0,0,0,0,0.2549,0.2554,0.2608,0.2596,0.2598,0.261,0.2614,0.264,0.2648,0.2626,0.2627,0.2636,0.2668,0.2679,0.2682,0.2721,0.2693,0.2696,0.2697,0.2698,0.2829,0.2831,0,0,0,0,0,0,0.2546,0.2552,0.2606,0.261,0.2575,0.2612,0.2617,0.2624,0.2648,0.2652,0.2637,0.2636,0.2675,0.2679,0.2683,0.2758,0.2696,0.2698,0.27,0.2827,0.2829,0.2832,0,0,0,0,0,0,0.2544,0.255,0.2604,0.2583,0.2591,0.2614,0.2623,0.2626,0.2641,0.2657,0.266,0.265,0.2674,0.268,0.2723,0.2758,0.2699,0.2701,0.2825,0.2828,0.2831,0.2885,0,0,0,0,0,0,0.2541,0.2549,0.2555,0.2583,0.2592,0.265,0.2624,0.2627,0.2649,0.2648,0.2669,0.2672,0.2674,0.272,0.2725,0.2761,0.2703,0.2822,0.2826,0.283,0.2881,0.289,0.2898,0,0,0,0,0,0.2538,0.2556,0.2554,0.2561,0.2599,0.2652,0.2659,0.267,0.265,0.2676,0.2684,0.2671,0.2748,0.2723,0.273,0.2766,0.282,0.2825,0.2829,0.2877,0.2888,0.2897,0,0,0,0,0,0,0.2524,0.2558,0.2557,0.2582,0.2622,0.2653,0.2676,0.2677,0.2703,0.2697,0.2698,0.2703,0.2754,0.2757,0.2729,0.2817,0.2782,0.2788,0.2817,0.2827,0.2835,0.2854,0.2705,0,0,0,0,0,0.2524,0.2546,0.2584,0.2605,0.2626,0.2649,0.2669,0.2681,0.2706,0.2716,0.2729,0.2748,0.2779,0.2798,0.2824,0.2874,0.2884,0.2903,0.2911,0.2918,0.2939,0.299,0.3005,0.2847,0.2847,0.2847,0,0,0.252,0.2545,0.2554,0.2604,0.263,0.2675,0.266,0.2702,0.2736,0.2718,0.2765,0.2778,0.2799,0.2854,0.2877,0.286,0.2967,0.2924,0.2929,0.2947,0.2996,0.3012,0.3025,0.285,0.2849,0.2849,0,0,0.2541,0.2553,0.2586,0.2625,0.2677,0.2697,0.2712,0.2753,0.2772,0.282,0.2817,0.2858,0.2895,0.2929,0.2946,0.302,0.3007,0.3021,0.3081,0.313,0.3143,0.3155,0.3176,0.319,0.3026,0.3027,0.3027,0,0.253,0.2579,0.2606,0.2657,0.2688,0.2709,0.2755,0.2787,0.2836,0.2863,0.2844,0.2924,0.2937,0.3015,0.3042,0.304,0.3053,0.3036,0.3141,0.3153,0.3164,0.3183,0.3197,0.303,0.3029,0.3029,0.3029,0,0.2581,0.2626,0.2654,0.2718,0.2758,0.2804,0.2852,0.2893,0.2904,0.2932,0.3005,0.3031,0.3078,0.3092,0.309,0.3183,0.316,0.3141,0.3111,0.3183,0.3198,0.3212,0.3034,0.3033,0.3032,0.3031,0,0,0.2524,0.2661,0.2666,0.2715,0.2792,0.2829,0.2899,0.297,0.3008,0.306,0.3117,0.3185,0.319,0.3212,0.3219,0.3271,0.3353,0.3245,0.3246,0.326,0.3446,0.3352,0.3357,0.3348,0.3351,0.3354,0.342,0,0.2548,0.2658,0.2714,0.2802,0.2859,0.2911,0.2965,0.303,0.3077,0.314,0.3192,0.3243,0.3237,0.3255,0.3314,0.3347,0.3394,0.3336,0.3382,0.3383,0.3285,0.3372,0.3282,0.3327,0.3433,0.3435,0.3437,0,0.2557,0.2641,0.2733,0.2853,0.2878,0.2919,0.3006,0.3066,0.3163,0.3199,0.3275,0.3305,0.3405,0.3369,0.3487,0.3447,0.346,0.3478,0.348,0.3387,0.3315,0.3277,0.3347,0.3295,0.3457,0.3456,0.3454,0,0.2491,0.2639,0.271,0.2751,0.2885,0.2922,0.298,0.3073,0.3139,0.3237,0.3298,0.3389,0.3452,0.3501,0.3551,0.3523,0.3659,0.3615,0.3543,0.3535,0.3467,0.3447,0.3489,0.3695,0.3695,0.3695,0.3694,0,0.2476,0.253,0.2684,0.2721,0.2796,0.2888,0.2958,0.3031,0.3144,0.3223,0.3319,0.3397,0.3493,0.3578,0.3589,0.3618,0.3691,0.358,0.3561,0.3479,0.3461,0.3416,0.3372,0.3697,0.3696,0.3696,0.3696,0,0.2373,0.2482,0.2571,0.272,0.2765,0.2805,0.2951,0.3005,0.3123,0.3236,0.3276,0.344,0.3535,0.3614,0.3698,0.3668,0.3595,0.3675,0.3558,0.3524,0.3357,0.3318,0.3196,0.3104,0.3598,0.3596,0.3595,0,0.2332,0.237,0.2536,0.259,0.2652,0.2745,0.2804,0.2956,0.3029,0.3248,0.3295,0.3451,0.3529,0.3634,0.3612,0.3619,0.354,0.352,0.3445,0.3361,0.3306,0.3164,0.3087,0.3379,0.3376,0.3374,0.3372,0,0.2249,0.2296,0.2375,0.2494,0.2571,0.2669,0.2776,0.284,0.3014,0.3119,0.325,0.334,0.3471,0.3452,0.3485,0.3468,0.3356,0.3462,0.3431,0.3191,0.2988,0.2885,0.3307,0.3349,0.3351,0.3353,0.3354,0.3355,0.2165,0.2191,0.23,0.2395,0.2487,0.2567,0.26,0.2721,0.282,0.2952,0.3101,0.3176,0.3304,0.3329,0.3296,0.3208,0.316,0.3135,0.3112,0.299,0.2844,0.3192,0.3167,0.3168,0.3169,0.317,0.3171,0,0.2084,0.2131,0.2208,0.2321,0.2364,0.2456,0.2559,0.2565,0.2616,0.2762,0.2846,0.2947,0.2979,0.3053,0.3043,0.2922,0.2786,0.2847,0.2679,0.2633,0.3021,0.2956,0.2816,0.2816,0.2816,0.2816,0.2816,0.2816,0.2051,0.2081,0.2127,0.2179,0.224,0.2258,0.2284,0.2305,0.2377,0.2423,0.2476,0.2576,0.2811,0.2901,0.2836,0.2753,0.2559,0.2415,0.2395,0.2742,0.2768,0.2794,0.2726,0.254,0.2539,0.1934,0.1929,0.1926]},{"header":{"parameterUnit":"m.s-1","parameterCategory":2,"la1":30.2991,"la2":30.254,"lo1":-89.0895,"lo2":-89.0444,"dy":0.0017,"dx":0.0017,"nx":28,"ny":28,"refTime":"2025-03-15T03:00:00:Z","depth":"0","parameterNumber":3,"parameterNumberName":"V-component_of_CURRENTS"},"data":[0,0,0,0,0,0,0,0,0,0,0,0,0,0,0,0,0,0,0,0,0,0,0,0,0,0,0,0,0,0,0,0,0,0,0,0,0,0,0,0,0,0,0,0,0,0,0,0,0,0,0,0,0,0,0,0,0,0,0.0042,0.0042,0,0.003,0.0029,0.0029,0.0004,0.0004,0.0003,0.0003,-0.0076,-0.0077,-0.0079,0,0,0,0,0,0,0,0,0,0,0,0,0,0.0058,0.0058,0.0042,0.0042,0.0041,0.003,0.0029,0.0029,0.0004,0.0004,0.0003,0.0003,-0.0075,-0.0077,-0.0079,0,0,0,0,0,0,0,0,0,0,0,0,0,0.0048,0.0058,0.0042,0.0028,0.0027,0.003,0.0029,0.0029,0.0004,0.0004,0.0003,0.0003,-0.0074,-0.0077,-0.0079,-0.0082,0,0,-0.0087,-0.0088,0,0,0,0,0,0,0,0,0.0049,0.0048,0.003,0.0029,0.0028,0.0018,0.0007,-0.0011,0.0005,0.0012,0.0003,0.0002,-0.0049,-0.0054,-0.0055,-0.0086,-0.0089,-0.0087,-0.0089,-0.009,-0.0091,0,0,0,0,0,0,0,0.005,0.0048,0.0036,0.003,0.0029,0.0028,0.0026,0.0003,-0.0017,0.0011,0.001,0.001,-0.0051,-0.0052,-0.0057,-0.009,-0.0087,-0.0089,-0.0091,-0.0092,-0.0124,-0.0124,0,0,0,0,0,0,0.0052,0.0049,0.0037,0.0036,0.0038,0.0028,0.0026,0.0021,-0.0015,-0.002,0.0011,0.0009,-0.0048,-0.0054,-0.006,-0.0052,-0.009,-0.0092,-0.0094,-0.0125,-0.0124,-0.0124,0,0,0,0,0,0,0.0053,0.0051,0.0037,0.0043,0.0041,0.0029,0.0024,0.0022,0.0022,-0.0015,-0.0022,0.0014,-0.0048,-0.0057,-0.0071,-0.0056,-0.0093,-0.0096,-0.0126,-0.0125,-0.0124,-0.0044,0,0,0,0,0,0,0.0053,0.0051,0.0051,0.0043,0.0041,0.0047,0.0025,0.0022,0.0023,0.0021,-0.0015,-0.0023,-0.005,-0.0067,-0.0074,-0.006,-0.0098,-0.0127,-0.0125,-0.0124,-0.0047,-0.004,-0.0034,0,0,0,0,0,0.0054,0.0058,0.0051,0.005,0.004,0.0048,0.0048,0.0036,0.0024,0.0032,0.0008,-0.0021,-0.0064,-0.0068,-0.0076,-0.0063,-0.0127,-0.0126,-0.0124,-0.005,-0.0042,-0.0034,0,0,0,0,0,0,0.007,0.0056,0.0048,0.0048,0.0052,0.0044,0.0048,0.0042,0.0031,0.0024,-0.0012,-0.0021,-0.003,-0.0057,-0.006,-0.0069,-0.0101,-0.0101,-0.0042,-0.0034,-0.0028,-0.0013,-0.01,0,0,0,0,0,0.0073,0.0068,0.0063,0.0065,0.0066,0.0059,0.006,0.0055,0.0044,0.0039,0.0015,-0.0012,-0.0029,-0.004,-0.0063,-0.0065,-0.0092,-0.0063,-0.0056,-0.005,-0.0044,-0.0065,-0.0059,-0.0119,-0.0119,-0.0119,0,0,0.0081,0.0072,0.0071,0.0068,0.0066,0.0083,0.0058,0.0065,0.0083,0.0031,0.0039,0.0007,-0.0026,-0.0028,-0.0034,-0.0048,-0.0047,-0.0048,-0.0043,-0.004,-0.0063,-0.0057,-0.0052,-0.0118,-0.0118,-0.0118,0,0,0.0105,0.0088,0.0097,0.0102,0.0103,0.0101,0.0106,0.0102,0.0102,0.0106,0.0074,0.0058,0.0028,0.0015,0.0003,0.0031,-0.0014,0.0019,0.0068,0.0048,0.0053,0.0057,0.0033,0.0034,0.0026,0.0026,0.0026,0,0.0119,0.0127,0.0105,0.0121,0.0132,0.0113,0.014,0.0142,0.0136,0.0142,0.0116,0.0084,0.0052,0.0059,0.0068,0.0047,0.0024,0.0043,0.0058,0.0061,0.0063,0.0038,0.0038,0.003,0.0029,0.0029,0.0029,0,0.0153,0.0164,0.0172,0.0183,0.0192,0.0211,0.0212,0.0223,0.0213,0.0208,0.0206,0.0164,0.0146,0.0134,0.0108,0.0117,0.0091,0.0067,0.0041,0.0075,0.0045,0.0044,0.0036,0.0034,0.0033,0.0032,0,0,0.0185,0.0194,0.02,0.0221,0.0226,0.0245,0.0272,0.0296,0.0321,0.0296,0.0321,0.0283,0.025,0.0234,0.0198,0.0181,0.0177,0.0137,0.0134,0.012,0.013,0.0105,0.0101,0.0155,0.0155,0.0155,0.0103,0,0.0225,0.0266,0.0259,0.0313,0.0339,0.0334,0.0367,0.0382,0.0379,0.0395,0.0355,0.035,0.0292,0.0282,0.0258,0.0201,0.0177,0.0193,0.0094,0.0091,0.007,0.01,0.0122,0.0076,0.0101,0.0101,0.0101,0,0.0271,0.0292,0.0342,0.0387,0.0398,0.0424,0.0471,0.0496,0.0507,0.0504,0.0486,0.0445,0.0421,0.0361,0.0282,0.0294,0.0218,0.0165,0.0162,0.011,0.0064,0.0045,0.0073,-0.0048,0.0099,0.0099,0.0099,0,0.0314,0.0359,0.04,0.0413,0.0452,0.048,0.0503,0.0525,0.0566,0.0565,0.0591,0.0533,0.0523,0.0425,0.0311,0.0295,0.0219,0.0181,0.0085,0.0081,0.0066,0.0062,-0.0028,0.0116,0.0116,0.0116,0.0117,0,0.0364,0.0405,0.0423,0.0448,0.0517,0.0521,0.0592,0.0608,0.0644,0.0711,0.0643,0.0682,0.0538,0.0476,0.0349,0.0223,0.0243,0.01,0.0071,0.0094,0.0093,-0.0041,-0.0133,0.0114,0.0115,0.0115,0.0116,0,0.0412,0.042,0.0476,0.0517,0.0538,0.0584,0.066,0.0715,0.0735,0.0823,0.0829,0.0798,0.0718,0.0565,0.0413,0.0287,0.0078,0.0096,0.0131,0.0107,-0.0101,-0.0188,-0.0316,-0.038,-0.0014,-0.0015,-0.0016,0,0.0437,0.0465,0.0524,0.0567,0.0587,0.0656,0.0717,0.0757,0.0826,0.0909,0.0965,0.091,0.0912,0.0674,0.0423,0.0194,0.0057,0.0049,0.0017,-0.0102,-0.0221,-0.0264,-0.0312,0.0027,0.0027,0.0027,0.0026,0,0.0487,0.05,0.0545,0.063,0.0695,0.0784,0.087,0.0948,0.1021,0.1112,0.1211,0.1216,0.0988,0.0777,0.044,0.0265,-0.0037,0.0036,-0.0092,-0.0198,-0.0246,-0.0324,0.0043,0.0024,0.0024,0.0025,0.0025,0.0025,0.0521,0.0562,0.0617,0.0705,0.0788,0.0908,0.101,0.1122,0.1266,0.1432,0.1402,0.1463,0.1124,0.0675,0.0403,-0.0056,-0.0071,-0.0177,-0.0274,-0.0304,-0.0367,-0.0007,-0.0059,-0.006,-0.006,-0.006,-0.006,0,0.0561,0.0612,0.0694,0.0804,0.0914,0.0948,0.1119,0.1246,0.1448,0.1587,0.1687,0.157,0.1142,0.0687,0.0066,-0.0268,-0.0394,-0.0462,-0.0515,-0.0551,-0.0226,-0.0224,-0.0308,-0.0308,-0.0308,-0.0308,-0.0307,-0.0307,0.0584,0.0662,0.0708,0.089,0.0984,0.1156,0.1271,0.1466,0.1614,0.1829,0.1893,0.1901,0.1566,0.0404,-0.0346,-0.0537,-0.0756,-0.0828,-0.0949,-0.0727,-0.0707,-0.0688,-0.0704,-0.0888,-0.0889,-0.1195,-0.1199,-0.1202]}],[{"header":{"parameterUnit":"m.s-1","parameterCategory":2,"la1":30.2991,"la2":30.254,"lo1":-89.0895,"lo2":-89.0444,"dy":0.0017,"dx":0.0017,"nx":28,"ny":28,"refTime":"2025-03-15T03:00:00:Z","depth":"2","parameterNumber":2,"parameterNumberName":"U-component_of_CURRENTS"},"data":[0,0,0,0,0,0,0,0,0,0,0,0,0,0,0,0,0,0,0,0,0,0,0,0,0,0,0,0,0,0,0,0,0,0,0,0,0,0,0,0,0,0,0,0,0,0,0,0,0,0,0,0,0,0,0,0,0,0,0.2082,0.2082,0,0.2125,0.2126,0.2126,0.215,0.215,0.215,0.215,0.2208,0.2209,0.2211,0,0,0,0,0,0,0,0,0,0,0,0,0,0.205,0.2051,0.2082,0.2082,0.2083,0.2125,0.2126,0.2126,0.215,0.215,0.215,0.215,0.2207,0.2209,0.2211,0,0,0,0,0,0,0,0,0,0,0,0,0,0.2076,0.2051,0.2081,0.21,0.2102,0.2125,0.2126,0.2127,0.215,0.215,0.215,0.215,0.2207,0.2209,0.2211,0.2223,0,0,0.2218,0.2219,0,0,0,0,0,0,0,0,0.2074,0.2077,0.2096,0.2099,0.2101,0.2133,0.2136,0.216,0.215,0.2131,0.215,0.215,0.2184,0.2188,0.2196,0.2225,0.2228,0.2218,0.222,0.222,0.2221,0,0,0,0,0,0,0,0.2072,0.2075,0.2099,0.2097,0.21,0.2117,0.212,0.2141,0.2157,0.2133,0.2135,0.214,0.2185,0.2193,0.2197,0.2229,0.2218,0.222,0.2221,0.2222,0.2318,0.2319,0,0,0,0,0,0,0.2066,0.2073,0.2097,0.21,0.2088,0.2117,0.2121,0.2122,0.2156,0.2162,0.214,0.2141,0.219,0.2195,0.2199,0.2278,0.222,0.2223,0.2224,0.2317,0.2319,0.232,0,0,0,0,0,0,0.2065,0.2067,0.2096,0.2088,0.2093,0.2117,0.2119,0.2123,0.2147,0.2161,0.2167,0.2161,0.219,0.2196,0.2235,0.2278,0.2224,0.2226,0.2316,0.2317,0.2319,0.2395,0,0,0,0,0,0,0.2064,0.2067,0.2076,0.2088,0.2093,0.2129,0.2119,0.2124,0.2149,0.2151,0.2181,0.2186,0.219,0.2231,0.2237,0.228,0.2227,0.2314,0.2316,0.2319,0.2391,0.2399,0.2406,0,0,0,0,0,0.2062,0.2079,0.2076,0.2079,0.2101,0.213,0.2135,0.2152,0.215,0.2172,0.2187,0.2186,0.225,0.2234,0.224,0.2285,0.2313,0.2316,0.2318,0.2388,0.2398,0.2406,0,0,0,0,0,0,0.2072,0.2083,0.208,0.2098,0.2119,0.2134,0.2158,0.2162,0.2191,0.2195,0.2202,0.2209,0.2265,0.2256,0.2239,0.2317,0.2281,0.2285,0.2332,0.2341,0.2349,0.2364,0.2229,0,0,0,0,0,0.2075,0.2086,0.2102,0.2116,0.213,0.2144,0.216,0.217,0.2191,0.2204,0.2222,0.2243,0.2278,0.2293,0.2321,0.2357,0.2362,0.2388,0.2396,0.2403,0.2419,0.2464,0.2478,0.2329,0.2329,0.2329,0,0,0.2078,0.2088,0.2093,0.2118,0.2134,0.2168,0.2155,0.2187,0.2221,0.2206,0.2262,0.2278,0.2296,0.2347,0.237,0.2346,0.2445,0.2406,0.2412,0.2424,0.2469,0.2483,0.2497,0.2331,0.233,0.233,0,0,0.2094,0.2104,0.2122,0.215,0.2181,0.2193,0.2206,0.2233,0.2259,0.2305,0.231,0.2347,0.2389,0.2414,0.2431,0.2493,0.2491,0.25,0.2549,0.2593,0.2606,0.2618,0.2633,0.2646,0.2496,0.2496,0.2496,0,0.2097,0.2122,0.2134,0.2171,0.2197,0.2208,0.2244,0.2277,0.2314,0.2338,0.2335,0.2415,0.2427,0.2496,0.252,0.2515,0.2528,0.2515,0.2605,0.2617,0.2627,0.264,0.2653,0.25,0.25,0.2499,0.2499,0,0.213,0.2161,0.2181,0.2223,0.2256,0.2291,0.2332,0.2371,0.2394,0.2418,0.2495,0.2518,0.256,0.2575,0.2571,0.2654,0.2635,0.2618,0.2585,0.2648,0.2656,0.2668,0.2506,0.2504,0.2503,0.2502,0,0,0.2101,0.2184,0.2192,0.2225,0.2288,0.2314,0.2384,0.2441,0.2485,0.2536,0.2595,0.2663,0.2668,0.2688,0.2692,0.273,0.2811,0.271,0.2711,0.2731,0.2899,0.2817,0.2821,0.2816,0.2819,0.2821,0.2872,0,0.212,0.2188,0.2229,0.2298,0.2336,0.2386,0.2442,0.2499,0.2551,0.2613,0.2659,0.2717,0.2715,0.2737,0.2785,0.281,0.2848,0.2798,0.2831,0.2832,0.2756,0.2835,0.2642,0.2666,0.2883,0.2885,0.2886,0,0.2132,0.2179,0.2244,0.2331,0.2353,0.24,0.2487,0.2545,0.2636,0.2675,0.2748,0.278,0.2861,0.2837,0.2936,0.2907,0.2917,0.2928,0.2929,0.2838,0.2773,0.2641,0.268,0.2906,0.2904,0.2903,0.2902,0,0.2087,0.2187,0.2235,0.2269,0.2368,0.2413,0.2468,0.2559,0.2619,0.2718,0.2774,0.2857,0.2916,0.2959,0.2992,0.2975,0.308,0.3048,0.2983,0.2975,0.281,0.2784,0.3118,0.3118,0.3117,0.3117,0.3117,0,0.2082,0.212,0.2223,0.2252,0.2313,0.2395,0.2469,0.2536,0.2645,0.2709,0.2804,0.2872,0.2958,0.3023,0.3026,0.3047,0.311,0.3015,0.2998,0.2828,0.2803,0.3006,0.2992,0.3119,0.3119,0.3118,0.3118,0,0.2015,0.2085,0.2141,0.2253,0.229,0.2332,0.2463,0.2517,0.2637,0.2731,0.2769,0.2916,0.2993,0.3053,0.3116,0.3092,0.3103,0.3085,0.2867,0.2823,0.2957,0.2947,0.3029,0.3027,0.3025,0.3023,0.3022,0,0.1987,0.2009,0.2115,0.2148,0.2202,0.2286,0.2336,0.2477,0.254,0.2739,0.277,0.2913,0.296,0.3041,0.3025,0.3021,0.307,0.2828,0.276,0.2981,0.2956,0.2948,0.2941,0.2566,0.2561,0.2557,0.2554,0,0.1929,0.1959,0.2006,0.207,0.2132,0.2196,0.2291,0.2341,0.2499,0.2586,0.2693,0.2761,0.2878,0.2803,0.2829,0.2792,0.2812,0.2745,0.3057,0.2614,0.2548,0.2522,0.2529,0.2518,0.2522,0.2525,0.2527,0.2528,0.1874,0.1879,0.1936,0.1987,0.2048,0.2087,0.2104,0.2206,0.2277,0.239,0.2518,0.2556,0.2631,0.2567,0.2492,0.2448,0.263,0.2521,0.2532,0.2548,0.2481,0.2415,0.2347,0.2349,0.2351,0.2353,0.2355,0,0.1808,0.182,0.1856,0.1905,0.1914,0.1992,0.205,0.2041,0.2064,0.2197,0.2263,0.213,0.2122,0.2182,0.2077,0.2083,0.2051,0.1988,0.1941,0.1981,0.2015,0.1918,0.1636,0.1633,0.163,0.1628,0,0,0.1778,0.177,0.1779,0.1762,0.1793,0.178,0.1786,0.1782,0.1835,0.1831,0.1853,0.2045,0.2141,0.186,0.1841,0.172,0.1825,0.1652,0.2242,0.2229,0.2259,0.235,0.225,0,0,0,0,0]},{"header":{"parameterUnit":"m.s-1","parameterCategory":2,"la1":30.2991,"la2":30.254,"lo1":-89.0895,"lo2":-89.0444,"dy":0.0017,"dx":0.0017,"nx":28,"ny":28,"refTime":"2025-03-15T03:00:00:Z","depth":"2","parameterNumber":3,"parameterNumberName":"V-component_of_CURRENTS"},"data":[0,0,0,0,0,0,0,0,0,0,0,0,0,0,0,0,0,0,0,0,0,0,0,0,0,0,0,0,0,0,0,0,0,0,0,0,0,0,0,0,0,0,0,0,0,0,0,0,0,0,0,0,0,0,0,0,0,0,0.0012,0.0012,0,0.0003,0.0003,0.0003,-0.0019,-0.0019,-0.002,-0.002,-0.0094,-0.0095,-0.0097,0,0,0,0,0,0,0,0,0,0,0,0,0,0.0025,0.0025,0.0012,0.0012,0.0011,0.0003,0.0003,0.0003,-0.0019,-0.0019,-0.002,-0.002,-0.0093,-0.0095,-0.0097,0,0,0,0,0,0,0,0,0,0,0,0,0,0.0018,0.0025,0.0012,0.0,-0.0001,0.0003,0.0003,0.0003,-0.0019,-0.0019,-0.002,-0.002,-0.0093,-0.0095,-0.0097,-0.0099,0,0,-0.0104,-0.0105,0,0,0,0,0,0,0,0,0.0018,0.0017,0.0002,0.0001,-0.0,-0.0007,-0.0019,-0.0035,-0.0018,-0.0012,-0.002,-0.0021,-0.007,-0.0074,-0.0074,-0.0103,-0.0106,-0.0105,-0.0106,-0.0107,-0.0108,0,0,0,0,0,0,0,0.0019,0.0018,0.0008,0.0002,0.0001,0.0001,-0.0001,-0.0022,-0.0039,-0.0013,-0.0014,-0.0014,-0.0071,-0.0072,-0.0076,-0.0107,-0.0105,-0.0107,-0.0108,-0.0109,-0.0141,-0.014,0,0,0,0,0,0,0.0021,0.0018,0.0008,0.0007,0.0008,0.0001,-0.0001,-0.0005,-0.0038,-0.0043,-0.0014,-0.0015,-0.0067,-0.0073,-0.0079,-0.0074,-0.0107,-0.0109,-0.0111,-0.0141,-0.0141,-0.014,0,0,0,0,0,0,0.0021,0.002,0.0008,0.0013,0.0012,0.0001,-0.0002,-0.0004,-0.0004,-0.0037,-0.0044,-0.0011,-0.0068,-0.0076,-0.0091,-0.0078,-0.011,-0.0113,-0.0142,-0.0141,-0.014,-0.0071,0,0,0,0,0,0,0.0021,0.002,0.0019,0.0013,0.0012,0.0018,-0.0002,-0.0004,-0.0003,-0.0005,-0.0037,-0.0045,-0.0069,-0.0087,-0.0093,-0.0082,-0.0114,-0.0143,-0.0142,-0.0141,-0.0074,-0.0068,-0.0063,0,0,0,0,0,0.0022,0.0025,0.0019,0.0018,0.001,0.0019,0.0018,0.0008,-0.0002,0.0005,-0.0018,-0.0044,-0.0085,-0.0089,-0.0096,-0.0085,-0.0143,-0.0142,-0.0141,-0.0077,-0.0069,-0.0063,0,0,0,0,0,0,0.0036,0.0023,0.0016,0.0016,0.002,0.0015,0.0019,0.0014,0.0003,-0.0003,-0.0036,-0.0045,-0.0055,-0.0079,-0.0082,-0.0091,-0.0119,-0.0119,-0.0067,-0.0061,-0.0055,-0.0041,-0.0116,0,0,0,0,0,0.0038,0.0033,0.0029,0.0031,0.0032,0.0027,0.0029,0.0025,0.0015,0.001,-0.0013,-0.0037,-0.0054,-0.0064,-0.0086,-0.0089,-0.0115,-0.0087,-0.0082,-0.0077,-0.007,-0.0095,-0.009,-0.0136,-0.0136,-0.0136,0,0,0.0046,0.0037,0.0036,0.0034,0.0033,0.0049,0.0026,0.0034,0.005,0.0002,0.0009,-0.0021,-0.0051,-0.0055,-0.0061,-0.0073,-0.0077,-0.0075,-0.007,-0.0067,-0.0093,-0.0088,-0.0085,-0.0135,-0.0135,-0.0135,0,0,0.0068,0.0051,0.006,0.0064,0.0067,0.0066,0.0071,0.0068,0.0068,0.007,0.0041,0.0023,-0.0005,-0.0018,-0.003,-0.0006,-0.0048,-0.0016,0.0026,0.0003,0.0007,0.001,-0.0015,-0.0015,-0.0011,-0.001,-0.001,0,0.0081,0.0088,0.0067,0.0083,0.0095,0.0077,0.0105,0.0105,0.0099,0.0103,0.0078,0.0046,0.0015,0.002,0.0026,0.0008,-0.0015,0.0005,0.0011,0.0013,0.0015,-0.0011,-0.0012,-0.0007,-0.0007,-0.0008,-0.0008,0,0.0112,0.0123,0.013,0.0142,0.0152,0.0171,0.0172,0.0181,0.017,0.0164,0.0159,0.0117,0.0099,0.0086,0.0062,0.0065,0.0042,0.002,-0.0004,0.0024,-0.0006,-0.0008,-0.0002,-0.0003,-0.0004,-0.0005,0,0,0.0144,0.015,0.0157,0.0179,0.0186,0.0205,0.0229,0.025,0.0273,0.0245,0.0266,0.0225,0.0193,0.0178,0.0143,0.0121,0.0109,0.008,0.0077,0.006,0.0056,0.0036,0.0032,0.0087,0.0087,0.0087,0.0031,0,0.0183,0.0221,0.0215,0.027,0.0295,0.0292,0.0321,0.0334,0.0328,0.0341,0.0296,0.0289,0.0232,0.0222,0.0193,0.0134,0.0106,0.0126,0.0027,0.0024,0.0007,0.003,0.0047,-0.0002,0.0028,0.0028,0.0028,0,0.0227,0.0247,0.0295,0.0342,0.0354,0.0381,0.0427,0.0449,0.0452,0.0447,0.0425,0.0382,0.0351,0.0293,0.0205,0.022,0.0144,0.0089,0.0085,0.0042,0.0001,-0.0026,-0.0007,0.0023,0.0024,0.0024,0.0024,0,0.027,0.0314,0.0354,0.0367,0.0407,0.0436,0.0459,0.0477,0.0515,0.0507,0.053,0.0466,0.0451,0.0349,0.0228,0.0216,0.0125,0.0093,0.0003,0.0,-0.0017,-0.002,0.0025,0.0025,0.0025,0.0025,0.0025,0,0.0318,0.036,0.0376,0.0401,0.0471,0.0477,0.0548,0.0562,0.0594,0.0653,0.0582,0.0611,0.0464,0.0392,0.0263,0.0133,0.0148,0.0016,-0.0012,0.0008,0.0007,0.0001,-0.0001,0.0023,0.0023,0.0024,0.0024,0,0.0365,0.0371,0.0427,0.0468,0.0491,0.0538,0.0618,0.0672,0.0686,0.0763,0.0766,0.0725,0.0632,0.0475,0.0314,0.0194,0.0056,0.0,0.0032,0.0009,-0.0063,-0.0061,-0.0098,-0.01,-0.01,-0.0101,-0.0102,0,0.0391,0.0416,0.0474,0.0517,0.0539,0.061,0.0673,0.0714,0.0781,0.0842,0.0892,0.0823,0.0799,0.0553,0.0316,0.0088,0.0054,-0.0048,-0.0071,-0.005,-0.0074,-0.007,-0.0067,-0.0069,-0.0069,-0.007,-0.007,0,0.044,0.0451,0.0494,0.0577,0.0645,0.0737,0.0825,0.09,0.0965,0.103,0.1095,0.1072,0.0846,0.0622,0.0302,0.0143,-0.0012,-0.0061,-0.0042,-0.0038,-0.0027,-0.0048,-0.0045,-0.0072,-0.0072,-0.0072,-0.0072,-0.0071,0.0475,0.0511,0.0561,0.0647,0.0733,0.0853,0.0951,0.1051,0.117,0.1284,0.1245,0.1225,0.0955,0.0559,0.0269,-0.0034,-0.0016,-0.0122,-0.0119,-0.0117,-0.0101,-0.0091,-0.0146,-0.0146,-0.0147,-0.0147,-0.0147,0,0.0511,0.0556,0.0634,0.074,0.0846,0.0887,0.1052,0.1155,0.1309,0.139,0.1435,0.119,0.0921,0.0606,0.0163,-0.0103,-0.0128,-0.0192,-0.0161,-0.0156,-0.0152,-0.0138,-0.0194,-0.0194,-0.0195,-0.0196,0,0,0.0531,0.0601,0.0642,0.0814,0.0904,0.107,0.1175,0.1321,0.1419,0.151,0.1501,0.1434,0.104,0.0713,0.0338,0.0079,0.0025,0.0021,0.0089,0.0176,0.0183,-0.0083,-0.0051,0,0,0,0,0]}],[{"header":{"parameterUnit":"m.s-1","parameterCategory":2,"la1":30.2991,"la2":30.254,"lo1":-89.0895,"lo2":-89.0444,"dy":0.0017,"dx":0.0017,"nx":28,"ny":28,"refTime":"2025-03-15T03:00:00:Z","depth":"4","parameterNumber":2,"parameterNumberName":"U-component_of_CURRENTS"},"data":[0,0,0,0,0,0,0,0,0,0,0,0,0,0,0,0,0,0,0,0,0,0,0,0,0,0,0,0,0,0,0,0,0,0,0,0,0,0,0,0,0,0,0,0,0,0,0,0,0,0,0,0,0,0,0,0,0,0,0.1214,0.1213,0,0.1214,0.1215,0.1215,0.124,0.124,0.124,0.1241,0.131,0.1311,0.1313,0,0,0,0,0,0,0,0,0,0,0,0,0,0.123,0.123,0.1214,0.1213,0.1213,0.1214,0.1215,0.1215,0.124,0.124,0.124,0.1241,0.1309,0.1311,0.1313,0,0,0,0,0,0,0,0,0,0,0,0,0,0.1229,0.123,0.1214,0.1223,0.1224,0.1214,0.1215,0.1215,0.1239,0.124,0.1241,0.1241,0.1309,0.1311,0.1313,0.1316,0,0,0.132,0.1321,0,0,0,0,0,0,0,0,0.1229,0.1229,0.1222,0.1223,0.1223,0.1225,0.1245,0.1251,0.1239,0.1237,0.1241,0.1241,0.1286,0.129,0.1292,0.1319,0.1322,0.132,0.1322,0.1323,0.1323,0,0,0,0,0,0,0,0.1229,0.1229,0.1217,0.1222,0.1223,0.1226,0.1227,0.1247,0.1262,0.1237,0.1238,0.1233,0.1287,0.1289,0.1294,0.1323,0.132,0.1322,0.1324,0.1325,0.1407,0.1408,0,0,0,0,0,0,0.1222,0.1229,0.1217,0.1217,0.1224,0.1225,0.1226,0.1226,0.126,0.1264,0.1233,0.1234,0.1285,0.1291,0.1296,0.1378,0.1323,0.1325,0.1326,0.1406,0.1407,0.1408,0,0,0,0,0,0,0.1223,0.1222,0.1217,0.122,0.1219,0.1224,0.1224,0.1226,0.1254,0.1255,0.1262,0.1261,0.1286,0.1293,0.1324,0.1378,0.1326,0.1328,0.1405,0.1406,0.1408,0.1492,0,0,0,0,0,0,0.1223,0.1222,0.1236,0.122,0.1219,0.1226,0.1223,0.1225,0.1247,0.125,0.1281,0.1287,0.1287,0.132,0.1326,0.138,0.133,0.1404,0.1406,0.1407,0.1488,0.1496,0.1503,0,0,0,0,0,0.1224,0.1226,0.1237,0.1236,0.1233,0.1226,0.1227,0.1234,0.1248,0.1262,0.1277,0.1287,0.1335,0.1322,0.1329,0.1385,0.1403,0.1405,0.1407,0.1485,0.1494,0.1503,0,0,0,0,0,0,0.1244,0.1229,0.124,0.124,0.1244,0.123,0.1241,0.125,0.1273,0.1288,0.1294,0.13,0.1356,0.1345,0.1331,0.1409,0.1373,0.1376,0.143,0.1439,0.1446,0.1451,0.1331,0,0,0,0,0,0.1254,0.1257,0.1245,0.1255,0.1255,0.1258,0.1263,0.1272,0.1279,0.1292,0.1313,0.1334,0.1363,0.138,0.1401,0.1436,0.1435,0.1475,0.1482,0.1489,0.1495,0.1515,0.1526,0.1414,0.1414,0.1414,0,0,0.1267,0.1259,0.1264,0.126,0.1265,0.1266,0.1265,0.128,0.1302,0.1296,0.1345,0.137,0.1379,0.1426,0.1449,0.1426,0.1524,0.1491,0.1497,0.1499,0.1518,0.1529,0.1539,0.1416,0.1415,0.1415,0,0,0.1276,0.1287,0.1288,0.1289,0.1295,0.1295,0.1306,0.1314,0.1343,0.1379,0.1392,0.1441,0.1472,0.1496,0.1509,0.1565,0.1568,0.1578,0.1618,0.1639,0.1649,0.1657,0.1691,0.1702,0.1574,0.1575,0.1575,0,0.13,0.1288,0.1291,0.1287,0.1295,0.131,0.1319,0.1343,0.1369,0.14,0.1406,0.1489,0.1507,0.1568,0.1591,0.1588,0.1595,0.159,0.1651,0.1659,0.1666,0.1698,0.1709,0.1579,0.1578,0.1578,0.1577,0,0.1297,0.1297,0.1297,0.1301,0.1318,0.1325,0.1351,0.1386,0.1427,0.1456,0.1543,0.1573,0.162,0.1643,0.1637,0.1708,0.1697,0.1666,0.1633,0.1683,0.1713,0.1723,0.1585,0.1583,0.1582,0.1581,0,0,0.132,0.1299,0.1303,0.1304,0.1327,0.1335,0.1384,0.1427,0.1471,0.1533,0.1593,0.1672,0.1711,0.1726,0.1746,0.1766,0.184,0.1741,0.174,0.1784,0.1898,0.1792,0.1792,0.1817,0.1818,0.1819,0.1907,0,0.132,0.1303,0.1309,0.1321,0.1314,0.1353,0.1395,0.1452,0.1511,0.1573,0.1645,0.1717,0.1736,0.1779,0.1809,0.1831,0.1865,0.1819,0.1835,0.1836,0.1742,0.1799,0.1825,0.1914,0.1917,0.1918,0.1919,0,0.1315,0.1297,0.13,0.1317,0.1325,0.1351,0.1429,0.1473,0.1565,0.1621,0.1712,0.1765,0.1854,0.1838,0.1929,0.1898,0.1913,0.1919,0.1921,0.1796,0.1746,0.1847,0.1936,0.1935,0.1934,0.1933,0.1932,0,0.1309,0.13,0.1302,0.1304,0.1327,0.1363,0.1401,0.1493,0.1556,0.1663,0.1726,0.1825,0.1899,0.1928,0.1985,0.1957,0.2051,0.2008,0.1933,0.1927,0.196,0.195,0.2059,0.2059,0.2059,0.2058,0.2058,0,0.1289,0.1294,0.1295,0.129,0.1316,0.136,0.143,0.1483,0.1589,0.1658,0.1763,0.1834,0.1924,0.1993,0.2005,0.2015,0.2082,0.1957,0.1941,0.1995,0.1988,0.1969,0.1957,0.2062,0.2061,0.206,0.206,0,0.1277,0.1275,0.1267,0.1287,0.1306,0.1331,0.1431,0.1473,0.1596,0.1686,0.1731,0.1875,0.1962,0.204,0.2098,0.2049,0.2053,0.2037,0.2125,0.2111,0.191,0.1902,0.195,0.1947,0.1945,0.1943,0.1941,0,0.1259,0.1251,0.1262,0.1257,0.1266,0.1316,0.1346,0.1461,0.1512,0.1692,0.1717,0.1868,0.1944,0.1972,0.2038,0.2069,0.2042,0.2033,0.1939,0.1918,0.19,0.1895,0.1891,0.1937,0.1936,0.1935,0.1935,0,0.1223,0.1239,0.1229,0.1214,0.1228,0.1247,0.1303,0.134,0.1469,0.1598,0.1683,0.1747,0.1846,0.1904,0.1961,0.1965,0.2022,0.2004,0.2008,0.1921,0.1902,0.1885,0.1884,0.1926,0.1927,0.1928,0.1928,0,0.1205,0.1185,0.1175,0.1152,0.1168,0.1156,0.1199,0.1251,0.1326,0.152,0.1539,0.1694,0.1823,0.1852,0.189,0.1906,0.1864,0.1781,0.1796,0.1807,0.1717,0.1669,0.162,0,0,0,0,0,0.117,0.1135,0.1111,0.1065,0.1079,0.1092,0.1155,0.1204,0.1331,0.1354,0.1452,0.1535,0.1621,0.1702,0.169,0.1811,0.1859,0.1785,0.1768,0.1876,0.1886,0.1792,0,0,0,0,0,0,0.114,0.1125,0.1083,0.1001,0.097,0.0974,0.1012,0.109,0.1118,0.1265,0.133,0.1443,0.1557,0.1628,0.1667,0.1688,0.1643,0.1883,0.1879,0.187,0.1879,0.1888,0.1794,0,0,0,0,0]},{"header":{"parameterUnit":"m.s-1","parameterCategory":2,"la1":30.2991,"la2":30.254,"lo1":-89.0895,"lo2":-89.0444,"dy":0.0017,"dx":0.0017,"nx":28,"ny":28,"refTime":"2025-03-15T03:00:00:Z","depth":"4","parameterNumber":3,"parameterNumberName":"V-component_of_CURRENTS"},"data":[0,0,0,0,0,0,0,0,0,0,0,0,0,0,0,0,0,0,0,0,0,0,0,0,0,0,0,0,0,0,0,0,0,0,0,0,0,0,0,0,0,0,0,0,0,0,0,0,0,0,0,0,0,0,0,0,0,0,0.005,0.005,0,0.0054,0.0054,0.0054,0.0046,0.0046,0.0045,0.0045,-0.0,-0.0001,-0.0002,0,0,0,0,0,0,0,0,0,0,0,0,0,0.0049,0.0049,0.005,0.005,0.005,0.0054,0.0054,0.0054,0.0046,0.0046,0.0045,0.0045,-0.0,-0.0001,-0.0003,0,0,0,0,0,0,0,0,0,0,0,0,0,0.0051,0.0049,0.005,0.0047,0.0047,0.0054,0.0054,0.0054,0.0046,0.0046,0.0045,0.0045,0.0,-0.0001,-0.0003,-0.0005,0,0,-0.0007,-0.0008,0,0,0,0,0,0,0,0,0.005,0.0051,0.0047,0.0047,0.0047,0.005,0.0037,0.0032,0.0046,0.0046,0.0045,0.0045,0.0012,0.001,0.0011,-0.0007,-0.0009,-0.0007,-0.0008,-0.0009,-0.0009,0,0,0,0,0,0,0,0.005,0.005,0.0051,0.0047,0.0047,0.005,0.005,0.0037,0.003,0.0046,0.0045,0.0047,0.0012,0.0013,0.001,-0.0009,-0.0007,-0.0009,-0.001,-0.001,-0.003,-0.003,0,0,0,0,0,0,0.005,0.005,0.0051,0.0052,0.0048,0.005,0.005,0.0049,0.0031,0.0028,0.0047,0.0046,0.0016,0.0012,0.0008,0.0012,-0.0009,-0.001,-0.0011,-0.003,-0.003,-0.003,0,0,0,0,0,0,0.005,0.005,0.0051,0.0052,0.0052,0.0051,0.0049,0.0049,0.0052,0.0032,0.0029,0.005,0.0015,0.001,0.0003,0.0009,-0.0011,-0.0012,-0.0031,-0.003,-0.003,0.0013,0,0,0,0,0,0,0.005,0.005,0.005,0.0051,0.0052,0.0061,0.005,0.0049,0.0053,0.0052,0.0034,0.0029,0.0015,0.0005,0.0001,0.0007,-0.0013,-0.0031,-0.0031,-0.003,0.0011,0.0015,0.0019,0,0,0,0,0,0.005,0.0053,0.005,0.0051,0.0052,0.0062,0.0063,0.006,0.0054,0.006,0.0047,0.003,0.0006,0.0004,-0.0,0.0005,-0.0032,-0.0031,-0.003,0.001,0.0015,0.0018,0,0,0,0,0,0,0.0057,0.0053,0.0049,0.0052,0.0059,0.0061,0.0066,0.0064,0.006,0.0057,0.0036,0.0031,0.0025,0.001,0.0008,0.0001,-0.0016,-0.0016,0.0016,0.002,0.0024,0.0035,-0.0015,0,0,0,0,0,0.0058,0.0057,0.0058,0.0062,0.0065,0.0066,0.0069,0.007,0.0067,0.0065,0.0051,0.0036,0.0025,0.0019,0.0006,0.0003,-0.0019,0.0003,0.0007,0.001,0.0016,-0.0013,-0.0012,-0.0027,-0.0027,-0.0027,0,0,0.0063,0.006,0.006,0.0064,0.0067,0.0082,0.0067,0.0078,0.0091,0.006,0.0067,0.0047,0.0027,0.0025,0.0021,0.0013,0.0003,0.0011,0.0014,0.0018,-0.0012,-0.0011,-0.001,-0.0026,-0.0027,-0.0027,0,0,0.0079,0.007,0.0078,0.0085,0.0093,0.0095,0.01,0.0103,0.0103,0.0107,0.0088,0.0075,0.0059,0.0048,0.004,0.0055,0.0022,0.0048,0.0076,0.0048,0.0049,0.005,0.0024,0.0022,0.0051,0.0051,0.0051,0,0.0088,0.0097,0.0085,0.01,0.0114,0.0103,0.0129,0.0128,0.0128,0.0131,0.0115,0.0092,0.0071,0.0072,0.0076,0.0064,0.0041,0.0062,0.0053,0.0053,0.0053,0.0026,0.0023,0.0053,0.0053,0.0053,0.0053,0,0.0113,0.0124,0.0132,0.0146,0.016,0.0177,0.0181,0.0186,0.018,0.0176,0.017,0.014,0.0129,0.0116,0.0101,0.0094,0.0076,0.006,0.0043,0.0057,0.0028,0.0024,0.0057,0.0056,0.0055,0.0055,0,0,0.0134,0.0146,0.0152,0.0173,0.0187,0.0207,0.0224,0.0241,0.0255,0.0233,0.0246,0.0216,0.0193,0.0182,0.0155,0.0128,0.0104,0.0096,0.0094,0.0073,0.0041,0.0037,0.0032,0.0082,0.0082,0.0082,0.0021,0,0.0163,0.0197,0.0199,0.0249,0.0272,0.0274,0.0296,0.0306,0.03,0.0304,0.0266,0.0262,0.0221,0.0215,0.0181,0.0125,0.0096,0.0122,0.0029,0.0026,0.0023,0.0029,0.008,0.0018,0.0017,0.0016,0.0016,0,0.0197,0.0215,0.0259,0.0305,0.0317,0.0345,0.0382,0.0398,0.0391,0.0387,0.0367,0.0334,0.0299,0.0258,0.0167,0.0185,0.012,0.0068,0.0064,0.0044,0.0016,-0.0,0.0009,0.0009,0.001,0.001,0.0011,0,0.0225,0.0268,0.0305,0.0319,0.0358,0.0387,0.041,0.0421,0.0448,0.0436,0.0449,0.0392,0.0374,0.0283,0.0177,0.0171,0.0068,0.0047,-0.0018,-0.002,-0.0018,-0.0018,-0.002,-0.002,-0.0019,-0.0019,-0.0019,0,0.0258,0.0297,0.0321,0.0343,0.0405,0.042,0.0481,0.0489,0.0512,0.0545,0.0493,0.05,0.0378,0.0305,0.0197,0.0081,0.0082,-0.0011,-0.0034,0.0002,0.0004,-0.0021,-0.002,-0.0021,-0.0021,-0.0021,-0.002,0,0.0289,0.0299,0.0349,0.0394,0.0419,0.046,0.054,0.0579,0.0589,0.0629,0.0631,0.0583,0.0488,0.0359,0.0211,0.012,0.0,-0.0044,0.001,-0.001,-0.0075,-0.0071,-0.0117,-0.0118,-0.0118,-0.0119,-0.0119,0,0.0305,0.0328,0.0385,0.0422,0.0448,0.0516,0.0571,0.0614,0.0659,0.0678,0.0701,0.0631,0.0577,0.0379,0.0229,0.0029,-0.0005,-0.0073,-0.008,-0.0066,-0.0084,-0.008,-0.0076,-0.012,-0.012,-0.012,-0.012,0,0.0338,0.0351,0.0389,0.0457,0.0521,0.0601,0.0677,0.0722,0.0764,0.0775,0.0766,0.0663,0.0559,0.0392,0.0238,0.0089,-0.0033,-0.0079,-0.0079,-0.0087,-0.007,-0.0086,-0.0082,-0.0122,-0.0122,-0.0122,-0.0121,0,0.0361,0.0387,0.0428,0.0496,0.0577,0.0661,0.0704,0.0763,0.0811,0.0826,0.0817,0.07,0.0631,0.0424,0.0279,0.0136,0.0094,0.0033,0.0027,0.0027,0.008,0.0124,0.0115,0,0,0,0,0,0.0378,0.0407,0.0468,0.0543,0.0624,0.0676,0.0767,0.0802,0.0843,0.0846,0.0837,0.0737,0.0534,0.0451,0.031,0.0255,0.0059,0.0082,-0.0016,-0.0132,-0.013,-0.0092,0,0,0,0,0,0,0.0386,0.0436,0.0466,0.0572,0.0633,0.0733,0.0794,0.0823,0.083,0.0839,0.0742,0.0687,0.0498,0.0616,0.0303,0.026,0.0173,-0.0011,-0.0014,-0.0133,-0.0131,-0.0129,-0.009,0,0,0,0,0]}]]